[[{"header":{"parameterUnit":"m.s-1","parameterCategory":2,"la1":30.2991,"la2":30.254,"lo1":-89.0895,"lo2":-89.0444,"dy":0.0017,"dx":0.0017,"nx":28,"ny":28,"refTime":"2023-04-28T21:00:00:Z","depth":"0","parameterNumber":2,"parameterNumberName":"U-component_of_CURRENTS"},"data":[0,0,0,0,0,0,0,0,0,0,0,0,0,0,0,0,0,0,0,0,0,0,0,0,0,0,0,0,0,0,0,0,0,0,0,0,0,0,0,0,0,0,0,0,0,0,0,0,0,0,0,0,0,0,0,0,0,0,0.5639,0.564,0,0.5735,0.5736,0.5736,0.5746,0.5745,0.5744,0.5744,0.5889,0.5893,0.5898,0,0,0,0,0,0,0,0,0,0,0,0,0,0.5564,0.5564,0.5639,0.564,0.5642,0.5735,0.5736,0.5737,0.5746,0.5745,0.5744,0.5743,0.5887,0.5893,0.5898,0,0,0,0,0,0,0,0,0,0,0,0,0,0.5619,0.5564,0.5638,0.566,0.5663,0.5734,0.5736,0.5737,0.5746,0.5745,0.5744,0.5743,0.5885,0.5892,0.5899,0.5963,0,0,0.592,0.5923,0,0,0,0,0,0,0,0,0.5615,0.5621,0.5655,0.5658,0.5662,0.573,0.5763,0.5816,0.5747,0.5712,0.5744,0.5742,0.5843,0.5853,0.5869,0.597,0.5976,0.592,0.5924,0.5927,0.5929,0,0,0,0,0,0,0,0.5611,0.5618,0.5674,0.5657,0.5661,0.5699,0.5704,0.5773,0.5781,0.5715,0.5716,0.5732,0.5844,0.5862,0.5873,0.5978,0.592,0.5926,0.593,0.5933,0.6223,0.6226,0,0,0,0,0,0,0.5601,0.5614,0.5671,0.5677,0.5639,0.5701,0.5707,0.5707,0.5779,0.579,0.5733,0.5732,0.5851,0.5865,0.5878,0.5984,0.5927,0.5934,0.5938,0.6219,0.6223,0.6227,0,0,0,0,0,0,0.5599,0.5605,0.5667,0.5651,0.5662,0.5703,0.5703,0.5709,0.5765,0.5793,0.5803,0.5786,0.5851,0.5868,0.5942,0.5989,0.5937,0.5943,0.6215,0.622,0.6225,0.6181,0,0,0,0,0,0,0.5596,0.5603,0.5617,0.5649,0.5662,0.5731,0.5705,0.5712,0.5775,0.5776,0.5842,0.5852,0.5851,0.5932,0.5949,0.5997,0.5948,0.621,0.6217,0.6224,0.6178,0.6184,0.619,0,0,0,0,0,0.5593,0.5559,0.5616,0.5625,0.5673,0.5733,0.5744,0.5768,0.5779,0.5813,0.5838,0.5852,0.5989,0.5939,0.5959,0.601,0.6207,0.6215,0.6223,0.6175,0.6183,0.6189,0,0,0,0,0,0,0.5486,0.556,0.5621,0.5604,0.5697,0.5736,0.5734,0.5802,0.5853,0.5835,0.5881,0.5893,0.5981,0.602,0.5966,0.6123,0.611,0.6122,0.6067,0.6075,0.6081,0.6099,0.5954,0,0,0,0,0,0.5491,0.5516,0.5606,0.5608,0.5633,0.5717,0.575,0.5788,0.5831,0.5852,0.5911,0.5969,0.603,0.6067,0.6124,0.6207,0.62,0.6266,0.6272,0.6276,0.6311,0.6356,0.6366,0.6254,0.6254,0.6254,0,0,0.5487,0.5498,0.5539,0.5598,0.564,0.5703,0.573,0.5769,0.5844,0.5862,0.5949,0.5994,0.6061,0.613,0.6178,0.6166,0.6284,0.6286,0.6288,0.6322,0.6365,0.6375,0.6384,0.6259,0.6258,0.6257,0,0,0.5442,0.5462,0.5489,0.5557,0.563,0.568,0.5716,0.5804,0.5852,0.5947,0.598,0.6063,0.6155,0.6215,0.6253,0.635,0.6315,0.6376,0.6413,0.6454,0.6462,0.6469,0.6358,0.6357,0.6374,0.6374,0.6374,0,0.5447,0.5469,0.5511,0.5537,0.5593,0.5682,0.5747,0.581,0.5931,0.6001,0.5966,0.6155,0.62,0.6327,0.6337,0.6364,0.6321,0.6358,0.6454,0.6462,0.6471,0.6357,0.6355,0.6373,0.6373,0.6373,0.6374,0,0.5457,0.5485,0.5472,0.5566,0.5628,0.5677,0.5783,0.587,0.5932,0.6028,0.6168,0.6212,0.6326,0.6362,0.6362,0.6481,0.6399,0.6444,0.6413,0.6478,0.6354,0.6353,0.6372,0.6372,0.6372,0.6373,0,0,0.5447,0.5498,0.5503,0.5548,0.5651,0.5694,0.5804,0.596,0.6026,0.6154,0.6238,0.6382,0.6419,0.6471,0.6505,0.655,0.6517,0.651,0.6512,0.6356,0.6477,0.6258,0.6234,0.6556,0.6559,0.6561,0.632,0,0.5474,0.5529,0.555,0.5632,0.5678,0.5775,0.5858,0.6002,0.6088,0.6174,0.6301,0.6368,0.6455,0.6447,0.6531,0.6528,0.6533,0.6571,0.648,0.6475,0.6241,0.6237,0.6115,0.5881,0.6319,0.6319,0.6319,0,0.5489,0.5522,0.5594,0.5664,0.5688,0.5737,0.5872,0.5959,0.6115,0.6166,0.6304,0.6364,0.648,0.6485,0.6573,0.6576,0.6538,0.6527,0.6518,0.635,0.6261,0.5919,0.5862,0.5927,0.6317,0.6317,0.6318,0,0.5438,0.5542,0.5589,0.5627,0.5721,0.5756,0.5822,0.5972,0.6005,0.6138,0.6128,0.6329,0.6306,0.6413,0.6441,0.6477,0.6445,0.6487,0.6256,0.6233,0.6138,0.6103,0.6115,0.6536,0.6536,0.6537,0.6538,0,0.5411,0.5435,0.5563,0.5554,0.559,0.5701,0.57,0.5805,0.5887,0.5884,0.6089,0.6072,0.6287,0.6311,0.6381,0.6285,0.6406,0.6247,0.6187,0.6104,0.6071,0.6133,0.6174,0.6528,0.653,0.6532,0.6533,0,0.5254,0.5365,0.5376,0.549,0.5512,0.552,0.5543,0.5555,0.567,0.5638,0.5658,0.5828,0.5835,0.5999,0.6066,0.6106,0.5972,0.6041,0.5848,0.5771,0.5583,0.5624,0.5207,0.5089,0.5705,0.5699,0.5693,0,0.5173,0.517,0.5241,0.5228,0.5234,0.5262,0.5252,0.5396,0.5393,0.5471,0.5429,0.5461,0.5454,0.5469,0.5565,0.5583,0.5631,0.5452,0.5554,0.5536,0.5542,0.5328,0.5249,0.5354,0.5346,0.534,0.5335,0,0.4978,0.4988,0.4989,0.4943,0.493,0.4898,0.4913,0.4883,0.502,0.5008,0.4966,0.4974,0.5018,0.5022,0.5083,0.5114,0.5278,0.5309,0.5418,0.536,0.501,0.4879,0.5453,0.5279,0.5284,0.5288,0.5291,0.5294,0.4799,0.4728,0.4702,0.462,0.4615,0.4502,0.439,0.4451,0.4379,0.4368,0.4511,0.4512,0.4748,0.4803,0.4769,0.4799,0.4738,0.4846,0.4903,0.4688,0.4573,0.4923,0.4625,0.4626,0.4628,0.4629,0.463,0,0.4497,0.4428,0.4376,0.4252,0.4116,0.4196,0.4121,0.4015,0.3868,0.4042,0.4017,0.4238,0.4318,0.4519,0.4678,0.4593,0.439,0.4536,0.4379,0.4335,0.4799,0.4804,0.4381,0.4381,0.4381,0.4381,0.4381,0.4381,0.4321,0.4121,0.4063,0.3763,0.3692,0.345,0.3356,0.3315,0.3414,0.3455,0.3623,0.3818,0.4311,0.4669,0.4745,0.4621,0.446,0.4132,0.4169,0.478,0.482,0.4859,0.4881,0.4481,0.4482,0.3569,0.3564,0.356]},{"header":{"parameterUnit":"m.s-1","parameterCategory":2,"la1":30.2991,"la2":30.254,"lo1":-89.0895,"lo2":-89.0444,"dy":0.0017,"dx":0.0017,"nx":28,"ny":28,"refTime":"2023-04-28T21:00:00:Z","depth":"0","parameterNumber":3,"parameterNumberName":"V-component_of_CURRENTS"},"data":[0,0,0,0,0,0,0,0,0,0,0,0,0,0,0,0,0,0,0,0,0,0,0,0,0,0,0,0,0,0,0,0,0,0,0,0,0,0,0,0,0,0,0,0,0,0,0,0,0,0,0,0,0,0,0,0,0,0,-0.0229,-0.0229,0,-0.0264,-0.0265,-0.0266,-0.0304,-0.0305,-0.0305,-0.0305,-0.0529,-0.0535,-0.054,0,0,0,0,0,0,0,0,0,0,0,0,0,-0.0271,-0.0269,-0.0229,-0.0229,-0.023,-0.0264,-0.0265,-0.0266,-0.0304,-0.0305,-0.0305,-0.0305,-0.0527,-0.0534,-0.0541,0,0,0,0,0,0,0,0,0,0,0,0,0,-0.0276,-0.0269,-0.0229,-0.0251,-0.0253,-0.0264,-0.0265,-0.0266,-0.0304,-0.0305,-0.0305,-0.0306,-0.0525,-0.0533,-0.0542,-0.0584,0,0,-0.0567,-0.0571,0,0,0,0,0,0,0,0,-0.0276,-0.0275,-0.0248,-0.025,-0.0252,-0.0278,-0.0362,-0.0381,-0.0304,-0.0287,-0.0305,-0.0306,-0.0461,-0.0474,-0.0481,-0.0594,-0.0604,-0.0568,-0.0573,-0.0577,-0.0579,0,0,0,0,0,0,0,-0.0275,-0.0274,-0.0246,-0.0248,-0.0251,-0.0285,-0.0286,-0.0365,-0.0376,-0.0289,-0.0291,-0.0291,-0.0464,-0.0472,-0.0487,-0.0607,-0.0568,-0.0576,-0.0581,-0.0584,-0.0792,-0.0793,0,0,0,0,0,0,-0.0261,-0.0273,-0.0245,-0.0247,-0.0263,-0.0283,-0.0285,-0.0271,-0.0371,-0.0385,-0.0291,-0.0293,-0.0458,-0.0477,-0.0495,-0.0501,-0.0577,-0.0585,-0.059,-0.0792,-0.0792,-0.0793,0,0,0,0,0,0,-0.0261,-0.0257,-0.0243,-0.026,-0.026,-0.0281,-0.0267,-0.0272,-0.0284,-0.037,-0.0388,-0.0297,-0.0459,-0.0483,-0.0569,-0.0512,-0.0589,-0.0596,-0.0791,-0.0792,-0.0793,-0.0546,0,0,0,0,0,0,-0.0262,-0.0257,-0.0252,-0.0258,-0.0258,-0.025,-0.0266,-0.0272,-0.0281,-0.0285,-0.0382,-0.0403,-0.0461,-0.0556,-0.0577,-0.0525,-0.0603,-0.0791,-0.0792,-0.0792,-0.0553,-0.0538,-0.0525,0,0,0,0,0,-0.0263,-0.0227,-0.0251,-0.0249,-0.0247,-0.0249,-0.0253,-0.0273,-0.0281,-0.0286,-0.0353,-0.04,-0.0576,-0.0563,-0.0589,-0.0537,-0.079,-0.0791,-0.0792,-0.056,-0.0541,-0.0525,0,0,0,0,0,0,-0.0222,-0.0228,-0.0254,-0.0218,-0.0243,-0.0255,-0.0249,-0.027,-0.0321,-0.0325,-0.0413,-0.0439,-0.0485,-0.0573,-0.0556,-0.0609,-0.0689,-0.0695,-0.0504,-0.0487,-0.0473,-0.0372,-0.061,0,0,0,0,0,-0.0217,-0.0211,-0.0225,-0.0207,-0.0208,-0.0236,-0.0241,-0.0254,-0.0293,-0.0313,-0.0376,-0.0454,-0.0508,-0.0547,-0.0621,-0.0661,-0.0707,-0.0651,-0.0636,-0.0623,-0.0564,-0.059,-0.0569,-0.0796,-0.0796,-0.0796,0,0,-0.0207,-0.0202,-0.0205,-0.0203,-0.0217,-0.0184,-0.024,-0.0234,-0.0207,-0.0335,-0.0332,-0.041,-0.0514,-0.0536,-0.0565,-0.0601,-0.0594,-0.0624,-0.061,-0.0559,-0.0588,-0.0565,-0.0544,-0.0797,-0.0797,-0.0797,0,0,-0.0149,-0.0167,-0.0136,-0.0142,-0.0151,-0.0156,-0.0152,-0.0167,-0.0178,-0.0208,-0.0267,-0.0294,-0.0425,-0.0428,-0.0462,-0.0425,-0.0517,-0.0488,-0.0321,-0.0346,-0.0325,-0.0307,-0.0357,-0.0345,-0.0477,-0.0476,-0.0476,0,-0.014,-0.0079,-0.0131,-0.0088,-0.0054,-0.013,-0.0059,-0.0088,-0.0132,-0.0108,-0.019,-0.0256,-0.0344,-0.0299,-0.0282,-0.0374,-0.0436,-0.0361,-0.0316,-0.0299,-0.0285,-0.0341,-0.0331,-0.0464,-0.0466,-0.0467,-0.0468,0,-0.0054,-0.0004,0.0023,0.0058,0.0076,0.0117,0.0097,0.01,0.007,0.0057,0.0066,-0.0042,-0.006,-0.0105,-0.0183,-0.0111,-0.0206,-0.0287,-0.033,-0.0245,-0.0313,-0.0306,-0.0447,-0.0452,-0.0455,-0.0458,0,0,-0.0026,0.0067,0.0076,0.0151,0.0172,0.0214,0.0261,0.0316,0.0384,0.0302,0.0396,0.0314,0.0269,0.0229,0.0136,0.0116,0.0153,-0.0032,-0.0039,-0.0027,0.0069,0.0024,0.0025,0.0066,0.0069,0.0072,-0.0025,0,0.0062,0.0221,0.0232,0.0381,0.0481,0.0458,0.0522,0.055,0.0538,0.0584,0.0511,0.0521,0.0385,0.0382,0.0355,0.0196,0.0182,0.0186,-0.0062,-0.0068,-0.0072,0.0037,0.0064,-0.0017,-0.002,-0.0019,-0.0018,0,0.0175,0.0269,0.0467,0.0618,0.0654,0.0718,0.086,0.0897,0.0924,0.091,0.0923,0.0829,0.082,0.0661,0.051,0.0503,0.0334,0.0198,0.0189,0.0084,-0.0097,-0.0108,-0.0007,-0.0183,-0.0009,-0.001,-0.0011,0,0.0324,0.0454,0.0645,0.0688,0.0818,0.0903,0.0953,0.1017,0.1076,0.1124,0.1153,0.1109,0.1057,0.0887,0.0593,0.0549,0.0385,0.028,0.0096,0.0087,0.0038,0.0022,-0.0001,0.0212,0.0212,0.0212,0.0213,0,0.0497,0.0636,0.0719,0.0835,0.101,0.1046,0.1223,0.1262,0.1323,0.1408,0.1327,0.1353,0.1101,0.0949,0.0695,0.0422,0.0461,0.0182,0.0091,0.0114,0.0107,-0.0113,-0.0265,0.0209,0.021,0.021,0.0211,0,0.0689,0.0761,0.0954,0.1077,0.1118,0.1241,0.1353,0.1451,0.1492,0.1599,0.1614,0.1529,0.1341,0.1068,0.0767,0.0542,0.0167,0.0176,0.0212,0.013,-0.0175,-0.0316,-0.0461,-0.0594,0.0007,0.0005,0.0004,0,0.0826,0.0955,0.1109,0.119,0.1253,0.1393,0.1482,0.1547,0.1631,0.1688,0.1739,0.1613,0.1527,0.1099,0.0712,0.0333,0.0102,0.0097,0.0058,-0.0122,-0.0349,-0.0436,-0.0544,0.0059,0.0059,0.0058,0.0058,0,0.1026,0.107,0.1188,0.1338,0.1451,0.1581,0.1694,0.1786,0.1849,0.1916,0.1941,0.1884,0.1511,0.1166,0.0672,0.0387,-0.0027,0.0078,-0.0105,-0.0267,-0.0366,-0.0561,0.0019,0.0055,0.0055,0.0055,0.0055,0.0055,0.1112,0.1186,0.1299,0.144,0.1569,0.1711,0.1815,0.1915,0.2042,0.2144,0.2091,0.2094,0.1637,0.0986,0.055,-0.0071,-0.0109,-0.0232,-0.0381,-0.0443,-0.0565,0.0014,-0.006,-0.006,-0.006,-0.0061,-0.0061,0,0.117,0.1238,0.1372,0.1524,0.1652,0.1723,0.1904,0.2,0.2124,0.2291,0.2321,0.2225,0.1575,0.0963,0.0093,-0.0403,-0.0607,-0.0655,-0.0755,-0.0845,-0.0307,-0.0295,-0.0425,-0.0425,-0.0424,-0.0424,-0.0424,-0.0424,0.1206,0.1292,0.1341,0.1529,0.1645,0.1804,0.1906,0.2076,0.2249,0.2489,0.2638,0.2712,0.2416,0.0674,-0.0476,-0.0804,-0.1167,-0.1221,-0.1436,-0.1048,-0.1019,-0.0991,-0.1006,-0.1284,-0.1285,-0.1874,-0.188,-0.1885]}],[{"header":{"parameterUnit":"m.s-1","parameterCategory":2,"la1":30.2991,"la2":30.254,"lo1":-89.0895,"lo2":-89.0444,"dy":0.0017,"dx":0.0017,"nx":28,"ny":28,"refTime":"2023-04-28T21:00:00:Z","depth":"2","parameterNumber":2,"parameterNumberName":"U-component_of_CURRENTS"},"data":[0,0,0,0,0,0,0,0,0,0,0,0,0,0,0,0,0,0,0,0,0,0,0,0,0,0,0,0,0,0,0,0,0,0,0,0,0,0,0,0,0,0,0,0,0,0,0,0,0,0,0,0,0,0,0,0,0,0,0.4514,0.4513,0,0.4372,0.4369,0.4366,0.4284,0.4285,0.4286,0.4287,0.4456,0.4459,0.4463,0,0,0,0,0,0,0,0,0,0,0,0,0,0.4421,0.4423,0.4514,0.4513,0.4513,0.4372,0.4369,0.4365,0.4283,0.4285,0.4286,0.4287,0.4455,0.4459,0.4463,0,0,0,0,0,0,0,0,0,0,0,0,0,0.4374,0.4424,0.4514,0.4466,0.4462,0.4373,0.4368,0.4364,0.4283,0.4285,0.4286,0.4288,0.4453,0.4458,0.4464,0.4463,0,0,0.448,0.4482,0,0,0,0,0,0,0,0,0.4377,0.4376,0.4474,0.447,0.4465,0.436,0.4398,0.4418,0.4283,0.4335,0.4287,0.4289,0.4462,0.4466,0.4409,0.4471,0.4478,0.448,0.4483,0.4485,0.4487,0,0,0,0,0,0,0,0.4381,0.438,0.4442,0.4474,0.4468,0.4353,0.4349,0.4397,0.4385,0.433,0.4328,0.4336,0.446,0.4404,0.4414,0.4481,0.448,0.4485,0.4488,0.449,0.4791,0.4796,0,0,0,0,0,0,0.4444,0.4385,0.4447,0.4439,0.4441,0.4356,0.435,0.438,0.4377,0.438,0.4335,0.4333,0.4394,0.4408,0.4421,0.468,0.4485,0.449,0.4493,0.4786,0.4792,0.4798,0,0,0,0,0,0,0.4442,0.4451,0.4453,0.4419,0.4413,0.436,0.439,0.4376,0.4363,0.438,0.4386,0.4343,0.4396,0.4413,0.4572,0.4677,0.4493,0.4497,0.4781,0.4788,0.4795,0.5035,0,0,0,0,0,0,0.4441,0.4452,0.4429,0.4425,0.4418,0.4382,0.439,0.4373,0.4371,0.4367,0.439,0.4403,0.4399,0.4565,0.4577,0.4681,0.4502,0.4774,0.4784,0.4793,0.5021,0.505,0.5074,0,0,0,0,0,0.4438,0.4398,0.443,0.4434,0.4413,0.4382,0.4363,0.4318,0.4371,0.4322,0.4447,0.4404,0.4629,0.4574,0.4587,0.4695,0.477,0.4781,0.4792,0.5009,0.5044,0.5074,0,0,0,0,0,0,0.4329,0.4388,0.4422,0.44,0.4398,0.4373,0.4343,0.4349,0.4389,0.4456,0.4483,0.4504,0.467,0.4654,0.4592,0.4806,0.4685,0.47,0.4846,0.4879,0.4905,0.4952,0.4506,0,0,0,0,0,0.4312,0.4346,0.4355,0.4367,0.4374,0.4383,0.4359,0.4366,0.4428,0.444,0.4482,0.4581,0.4709,0.4777,0.4828,0.4962,0.4894,0.5033,0.506,0.5083,0.5131,0.5124,0.5154,0.4834,0.4833,0.4833,0,0,0.4372,0.4336,0.4411,0.4352,0.4377,0.4395,0.437,0.4392,0.4447,0.4471,0.4579,0.4668,0.4764,0.4918,0.4989,0.4934,0.5131,0.5097,0.5116,0.5152,0.5138,0.5169,0.5196,0.4841,0.484,0.4838,0,0,0.4382,0.4404,0.4405,0.4399,0.4394,0.4412,0.4443,0.4459,0.4489,0.4603,0.4696,0.49,0.4962,0.5123,0.5209,0.5422,0.5264,0.5389,0.5584,0.5578,0.5604,0.5626,0.554,0.5553,0.5414,0.5414,0.5414,0,0.4378,0.4418,0.4397,0.4344,0.4422,0.4453,0.4523,0.4526,0.4598,0.4751,0.4664,0.5007,0.5086,0.5427,0.5509,0.5494,0.5393,0.546,0.5612,0.5632,0.5651,0.5558,0.5569,0.5427,0.5426,0.5424,0.5423,0,0.4402,0.4431,0.4447,0.4462,0.4489,0.458,0.4639,0.4723,0.4814,0.4895,0.5183,0.5276,0.5486,0.5556,0.5611,0.585,0.5699,0.5632,0.5526,0.5697,0.5588,0.5595,0.5445,0.5441,0.5437,0.5434,0,0,0.4447,0.4466,0.451,0.4545,0.461,0.4653,0.4832,0.5043,0.5191,0.5292,0.5479,0.5813,0.5859,0.5961,0.603,0.6096,0.6158,0.5928,0.5921,0.5836,0.6043,0.5782,0.5761,0.6064,0.6067,0.6071,0.5898,0,0.4502,0.4539,0.4547,0.4701,0.4758,0.4899,0.5038,0.5244,0.536,0.5486,0.5748,0.5878,0.5992,0.6045,0.617,0.612,0.6191,0.6206,0.5898,0.589,0.5632,0.5769,0.5408,0.521,0.5904,0.5905,0.5905,0,0.4522,0.4552,0.4703,0.4864,0.4919,0.4978,0.5318,0.5411,0.5668,0.5755,0.6008,0.6045,0.6296,0.6201,0.6334,0.6296,0.6231,0.6185,0.6173,0.5862,0.5644,0.5161,0.5194,0.5915,0.5914,0.5913,0.5913,0,0.4569,0.4689,0.4848,0.49,0.5032,0.5163,0.529,0.5553,0.5636,0.5838,0.5857,0.6161,0.6129,0.6205,0.6195,0.6202,0.6162,0.6126,0.5876,0.585,0.546,0.5394,0.6212,0.6212,0.6213,0.6213,0.6214,0,0.4601,0.4742,0.4858,0.4889,0.5075,0.5173,0.5319,0.5506,0.5635,0.57,0.5912,0.5915,0.6097,0.61,0.6146,0.6008,0.6126,0.594,0.5819,0.5525,0.5471,0.6024,0.6004,0.6207,0.6208,0.6209,0.6211,0,0.4596,0.4718,0.4779,0.4943,0.5012,0.5107,0.5224,0.5288,0.5448,0.5461,0.5491,0.5667,0.5644,0.5799,0.5815,0.583,0.5794,0.5728,0.5343,0.5183,0.5492,0.5488,0.5405,0.5395,0.5387,0.538,0.5374,0,0.4621,0.4631,0.4729,0.4739,0.4774,0.4905,0.4964,0.517,0.5176,0.5291,0.525,0.5271,0.5266,0.5224,0.5236,0.523,0.5483,0.4885,0.492,0.5535,0.5425,0.5434,0.544,0.4471,0.4458,0.4448,0.4439,0,0.4534,0.4525,0.4537,0.4548,0.457,0.4612,0.4687,0.4684,0.4851,0.485,0.4802,0.48,0.4769,0.4585,0.4594,0.4579,0.4869,0.4661,0.539,0.4737,0.4641,0.4537,0.4577,0.4345,0.4355,0.4362,0.4367,0.4371,0.437,0.4363,0.4294,0.4288,0.4321,0.4259,0.4204,0.424,0.4197,0.4141,0.4293,0.4155,0.4232,0.3994,0.3899,0.3851,0.4193,0.4118,0.4156,0.4205,0.4133,0.4029,0.36,0.3605,0.3609,0.3613,0.3616,0,0.4092,0.4105,0.4065,0.3977,0.3871,0.3994,0.3962,0.3811,0.3648,0.3695,0.3619,0.328,0.3185,0.3278,0.3068,0.3094,0.3143,0.2987,0.3069,0.3162,0.3245,0.3133,0.233,0.2325,0.2321,0.2318,0,0,0.3945,0.3796,0.3778,0.3512,0.3477,0.3272,0.3198,0.3041,0.3013,0.2807,0.274,0.2953,0.3144,0.2661,0.264,0.2452,0.278,0.2347,0.3385,0.3571,0.3649,0.3905,0.3835,0,0,0,0,0]},{"header":{"parameterUnit":"m.s-1","parameterCategory":2,"la1":30.2991,"la2":30.254,"lo1":-89.0895,"lo2":-89.0444,"dy":0.0017,"dx":0.0017,"nx":28,"ny":28,"refTime":"2023-04-28T21:00:00:Z","depth":"2","parameterNumber":3,"parameterNumberName":"V-component_of_CURRENTS"},"data":[0,0,0,0,0,0,0,0,0,0,0,0,0,0,0,0,0,0,0,0,0,0,0,0,0,0,0,0,0,0,0,0,0,0,0,0,0,0,0,0,0,0,0,0,0,0,0,0,0,0,0,0,0,0,0,0,0,0,0.0174,0.0174,0,0.0223,0.0224,0.0225,0.0209,0.0208,0.0207,0.0205,-0.0012,-0.0017,-0.0021,0,0,0,0,0,0,0,0,0,0,0,0,0,0.0087,0.0089,0.0174,0.0174,0.0175,0.0223,0.0224,0.0225,0.0209,0.0208,0.0206,0.0205,-0.0011,-0.0016,-0.0022,0,0,0,0,0,0,0,0,0,0,0,0,0,0.0131,0.0089,0.0174,0.0171,0.0172,0.0223,0.0224,0.0225,0.021,0.0208,0.0206,0.0204,-0.0009,-0.0016,-0.0023,-0.0028,0,0,-0.0044,-0.0047,0,0,0,0,0,0,0,0,0.0129,0.0135,0.0171,0.0172,0.0172,0.0206,0.0113,0.0126,0.021,0.0197,0.0205,0.0203,0.0036,0.0025,0.0045,-0.0039,-0.0048,-0.0044,-0.0049,-0.0052,-0.0054,0,0,0,0,0,0,0,0.0126,0.0133,0.0196,0.0172,0.0172,0.0174,0.0179,0.0117,0.0123,0.0198,0.0197,0.02,0.0034,0.0053,0.0039,-0.0051,-0.0044,-0.005,-0.0055,-0.0057,-0.0197,-0.0196,0,0,0,0,0,0,0.0117,0.013,0.0194,0.0197,0.0143,0.0177,0.0182,0.0199,0.013,0.0119,0.0201,0.0199,0.0065,0.0048,0.0031,-0.0023,-0.0052,-0.0058,-0.0062,-0.0197,-0.0197,-0.0196,0,0,0,0,0,0,0.0115,0.0123,0.0192,0.0162,0.017,0.018,0.0199,0.0201,0.0219,0.0134,0.0118,0.0217,0.0063,0.0041,-0.0061,-0.0031,-0.0061,-0.0068,-0.0198,-0.0197,-0.0197,-0.0105,0,0,0,0,0,0,0.0113,0.0122,0.015,0.0162,0.0172,0.0236,0.0201,0.0203,0.0222,0.022,0.0142,0.0121,0.006,-0.0051,-0.0068,-0.0041,-0.0073,-0.0199,-0.0198,-0.0197,-0.0109,-0.0102,-0.0095,0,0,0,0,0,0.011,0.0154,0.0152,0.016,0.0204,0.0237,0.0244,0.0245,0.0225,0.0251,0.0154,0.0124,-0.0055,-0.0058,-0.0078,-0.0051,-0.0199,-0.0198,-0.0197,-0.0112,-0.0103,-0.0095,0,0,0,0,0,0,0.0145,0.0157,0.0154,0.0205,0.0223,0.0234,0.0244,0.0256,0.0214,0.0183,0.0102,0.0073,0.0009,-0.0041,-0.0041,-0.0087,-0.012,-0.0123,-0.0048,-0.0041,-0.0034,0.0048,-0.0079,0,0,0,0,0,0.0163,0.0171,0.0203,0.0228,0.0235,0.0243,0.0259,0.0265,0.0225,0.0211,0.015,0.0072,0.0005,-0.0039,-0.01,-0.0145,-0.017,-0.0132,-0.0125,-0.0119,-0.0066,-0.0093,-0.0083,-0.0193,-0.0193,-0.0193,0,0,0.016,0.018,0.0176,0.0232,0.0226,0.0282,0.0247,0.0267,0.031,0.0183,0.0179,0.0087,-0.0004,-0.0051,-0.0081,-0.0097,-0.0112,-0.0117,-0.0112,-0.0061,-0.0091,-0.008,-0.007,-0.0192,-0.0192,-0.0192,0,0,0.0197,0.019,0.0234,0.0259,0.0286,0.0296,0.0308,0.0324,0.0324,0.0304,0.0221,0.0148,0.0055,0.0008,-0.0033,-0.0022,-0.0075,-0.0046,0.0051,0.0023,0.0033,0.0041,-0.0018,-0.0016,-0.0042,-0.0042,-0.0042,0,0.0215,0.0276,0.0251,0.0322,0.0343,0.0309,0.0381,0.0388,0.0373,0.0365,0.0308,0.02,0.0104,0.0073,0.0063,0.0001,-0.0041,0.0023,0.0035,0.0043,0.005,-0.0012,-0.0011,-0.0037,-0.0038,-0.0038,-0.0039,0,0.0298,0.0356,0.0367,0.0437,0.0467,0.0497,0.0511,0.0525,0.0494,0.0494,0.0452,0.0327,0.0279,0.0226,0.0134,0.0145,0.0086,0.0045,0.0022,0.0068,-0.0003,-0.0003,-0.0031,-0.0032,-0.0034,-0.0035,0,0,0.0321,0.0416,0.0415,0.0492,0.0526,0.0573,0.0607,0.065,0.0698,0.0637,0.0687,0.0544,0.0487,0.044,0.0332,0.0288,0.0254,0.019,0.0186,0.0146,0.0165,0.0131,0.0127,0.0205,0.0207,0.0208,0.0081,0,0.0399,0.0558,0.0563,0.0692,0.0785,0.0753,0.0805,0.0828,0.081,0.0843,0.0726,0.0711,0.0569,0.0539,0.0477,0.0316,0.0267,0.0292,0.0117,0.0113,0.009,0.0132,0.0151,0.0042,0.008,0.008,0.008,0,0.0514,0.0602,0.076,0.0876,0.0901,0.0963,0.1033,0.1079,0.1081,0.1062,0.1026,0.0942,0.0863,0.0746,0.0544,0.0559,0.0392,0.0259,0.025,0.0207,0.0083,0.0009,0.0041,0.008,0.008,0.008,0.008,0,0.0622,0.0749,0.088,0.0917,0.1036,0.1081,0.1113,0.1144,0.119,0.1215,0.1234,0.114,0.1082,0.0903,0.0612,0.0581,0.0385,0.0308,0.0125,0.0118,0.0103,0.0094,0.0204,0.0204,0.0205,0.0205,0.0205,0,0.0753,0.0855,0.0944,0.1034,0.1163,0.1199,0.1318,0.1341,0.1385,0.1445,0.1359,0.1371,0.1117,0.0958,0.0703,0.042,0.0455,0.0178,0.0107,0.0128,0.0123,0.0141,0.0135,0.02,0.0201,0.0202,0.0203,0,0.088,0.0942,0.111,0.1217,0.1252,0.1345,0.1428,0.151,0.1535,0.1619,0.1629,0.1534,0.1333,0.1061,0.0749,0.0528,0.0269,0.0154,0.0182,0.012,-0.0008,-0.0007,-0.0032,-0.0034,-0.0035,-0.0036,-0.0037,0,0.0965,0.1081,0.1227,0.1302,0.1349,0.1465,0.154,0.159,0.1665,0.17,0.1743,0.1603,0.1506,0.1063,0.0677,0.0291,0.0233,0.005,0.0017,0.0048,-0.002,-0.0018,-0.0016,-0.0004,-0.0004,-0.0005,-0.0005,0,0.1106,0.1153,0.1255,0.1403,0.1506,0.1623,0.1721,0.1806,0.1859,0.1912,0.1924,0.1857,0.147,0.1089,0.0593,0.033,0.0127,0.0027,0.0071,0.0066,0.0068,0.0003,0.0005,-0.001,-0.001,-0.0009,-0.0009,-0.0009,0.117,0.1224,0.1341,0.1471,0.1597,0.1732,0.1821,0.1914,0.2021,0.2078,0.2028,0.1923,0.1547,0.0905,0.0475,0.005,0.0077,-0.0086,-0.0082,-0.0078,-0.0038,-0.0037,-0.0131,-0.0131,-0.0131,-0.0131,-0.0131,0,0.1215,0.1262,0.1388,0.1535,0.1657,0.1728,0.1903,0.1971,0.2071,0.2138,0.2126,0.1751,0.1345,0.0917,0.0279,-0.0096,-0.0122,-0.0214,-0.0167,-0.0158,-0.0152,-0.0114,-0.0229,-0.023,-0.0232,-0.0233,0,0,0.1241,0.1315,0.1353,0.1532,0.1644,0.1794,0.1893,0.1999,0.2082,0.2114,0.207,0.1982,0.1482,0.0997,0.0492,0.0126,0.007,0.0055,0.0176,0.0302,0.0312,-0.0033,0.004,0,0,0,0,0]}],[{"header":{"parameterUnit":"m.s-1","parameterCategory":2,"la1":30.2991,"la2":30.254,"lo1":-89.0895,"lo2":-89.0444,"dy":0.0017,"dx":0.0017,"nx":28,"ny":28,"refTime":"2023-04-28T21:00:00:Z","depth":"4","parameterNumber":2,"parameterNumberName":"U-component_of_CURRENTS"},"data":[0,0,0,0,0,0,0,0,0,0,0,0,0,0,0,0,0,0,0,0,0,0,0,0,0,0,0,0,0,0,0,0,0,0,0,0,0,0,0,0,0,0,0,0,0,0,0,0,0,0,0,0,0,0,0,0,0,0,0.1343,0.1344,0,0.1282,0.1278,0.1275,0.1322,0.1327,0.1331,0.1336,0.1236,0.1229,0.1222,0,0,0,0,0,0,0,0,0,0,0,0,0,0.1126,0.1129,0.1342,0.1344,0.1346,0.1282,0.1278,0.1275,0.1321,0.1327,0.1333,0.1338,0.1238,0.123,0.1222,0,0,0,0,0,0,0,0,0,0,0,0,0,0.113,0.113,0.1342,0.1384,0.1389,0.1283,0.1278,0.1274,0.132,0.1327,0.1334,0.1341,0.1241,0.1231,0.122,0.1013,0,0,0.1188,0.1183,0,0,0,0,0,0,0,0,0.1131,0.1135,0.1376,0.1381,0.1387,0.1343,0.1167,0.1195,0.1318,0.1315,0.1336,0.1344,0.1282,0.1268,0.12,0.1008,0.1004,0.1187,0.1181,0.1176,0.1173,0,0,0,0,0,0,0,0.1131,0.1136,0.1288,0.1378,0.1385,0.128,0.1288,0.1168,0.1236,0.1316,0.1326,0.1364,0.1282,0.1209,0.1198,0.1003,0.1187,0.1178,0.1171,0.1167,0.111,0.1114,0,0,0,0,0,0,0.121,0.1137,0.1291,0.129,0.1307,0.1281,0.1289,0.1325,0.1238,0.1241,0.1358,0.1367,0.1224,0.121,0.1195,0.1331,0.1176,0.1166,0.116,0.1105,0.1111,0.1116,0,0,0,0,0,0,0.1205,0.1223,0.1294,0.1235,0.1241,0.1284,0.1319,0.1321,0.1337,0.1277,0.1274,0.1389,0.1229,0.121,0.1232,0.1314,0.1161,0.1152,0.1099,0.1107,0.1113,0.1356,0,0,0,0,0,0,0.1198,0.1221,0.126,0.1241,0.1249,0.1307,0.1316,0.1316,0.1359,0.1371,0.1299,0.1292,0.1233,0.1249,0.1222,0.1297,0.1144,0.1093,0.1103,0.1111,0.1342,0.137,0.1395,0,0,0,0,0,0.119,0.1248,0.1261,0.1282,0.1306,0.1311,0.1301,0.1332,0.1356,0.1365,0.1375,0.1299,0.129,0.1243,0.121,0.1284,0.1089,0.11,0.111,0.133,0.1365,0.1394,0,0,0,0,0,0,0.1202,0.1259,0.1275,0.1356,0.1367,0.1334,0.137,0.1357,0.1349,0.139,0.1317,0.131,0.1375,0.1286,0.1238,0.1306,0.1189,0.1194,0.1368,0.1399,0.1425,0.1482,0.1135,0,0,0,0,0,0.1215,0.1268,0.1295,0.1365,0.139,0.1371,0.1378,0.1391,0.1395,0.14,0.1376,0.1364,0.1363,0.1358,0.1328,0.1307,0.1296,0.1352,0.1379,0.1402,0.1433,0.1605,0.1651,0.1152,0.1152,0.1151,0,0,0.1211,0.1288,0.1296,0.1369,0.1383,0.1362,0.139,0.144,0.1491,0.1382,0.1466,0.1444,0.1386,0.1432,0.1449,0.1381,0.1515,0.1415,0.1435,0.1454,0.1621,0.167,0.1714,0.1159,0.1158,0.1156,0,0,0.1265,0.1336,0.1384,0.1424,0.1504,0.1424,0.1458,0.1467,0.1579,0.1609,0.1606,0.166,0.1593,0.1617,0.1604,0.174,0.1664,0.1731,0.1886,0.2054,0.2098,0.2136,0.2087,0.2119,0.1732,0.1733,0.1733,0,0.1275,0.1372,0.1394,0.1487,0.1524,0.1458,0.1485,0.1534,0.1566,0.1685,0.1697,0.1688,0.1693,0.1733,0.1868,0.1801,0.1828,0.1764,0.2094,0.2132,0.2167,0.2108,0.2141,0.1746,0.1744,0.1743,0.1742,0,0.1312,0.1451,0.1512,0.1549,0.1539,0.1593,0.1634,0.1715,0.1776,0.1808,0.1959,0.1941,0.1962,0.1975,0.199,0.2208,0.2116,0.2121,0.2017,0.2233,0.2153,0.2183,0.1764,0.1759,0.1756,0.1752,0,0,0.1257,0.1477,0.1525,0.1615,0.1619,0.1608,0.1734,0.1813,0.1959,0.199,0.2199,0.223,0.2244,0.224,0.2222,0.2376,0.2676,0.2414,0.2417,0.2367,0.2936,0.2655,0.2656,0.2788,0.2797,0.2804,0.2743,0,0.1312,0.1476,0.1554,0.1647,0.1704,0.1765,0.1901,0.1981,0.2065,0.2258,0.2317,0.2443,0.2334,0.242,0.2552,0.2689,0.2785,0.2683,0.273,0.2726,0.2461,0.2696,0.2833,0.2764,0.2771,0.2776,0.2779,0,0.1336,0.1468,0.1589,0.1833,0.1874,0.1886,0.2045,0.2226,0.2461,0.2574,0.2612,0.2653,0.282,0.2789,0.2946,0.2907,0.2984,0.3017,0.3016,0.2705,0.2509,0.2528,0.2831,0.2827,0.2823,0.282,0.2816,0,0.1296,0.1515,0.1608,0.1678,0.1868,0.2031,0.2146,0.2333,0.2535,0.2819,0.2867,0.2968,0.3084,0.3196,0.321,0.3202,0.3382,0.3349,0.3059,0.3028,0.3181,0.3142,0.3532,0.3532,0.3532,0.3532,0.3533,0,0.1371,0.1504,0.1627,0.177,0.1881,0.2101,0.2337,0.2495,0.2776,0.2911,0.3065,0.3056,0.3259,0.3311,0.3329,0.3218,0.3437,0.3125,0.3064,0.326,0.3233,0.3193,0.3154,0.353,0.353,0.3531,0.3531,0,0.1415,0.1506,0.1688,0.1918,0.1918,0.2087,0.2361,0.2568,0.2829,0.3009,0.3116,0.3248,0.3318,0.331,0.3494,0.331,0.3292,0.3194,0.3277,0.3212,0.2774,0.2749,0.2902,0.2893,0.2886,0.288,0.2875,0,0.1447,0.1533,0.1727,0.1765,0.1897,0.2106,0.2246,0.2537,0.2676,0.2985,0.3023,0.3214,0.3233,0.3142,0.3228,0.3134,0.3092,0.3006,0.3032,0.282,0.2745,0.2731,0.2717,0.2863,0.2861,0.2859,0.2857,0,0.1507,0.1606,0.1756,0.1812,0.1904,0.2004,0.222,0.2245,0.2618,0.2786,0.2863,0.2914,0.2961,0.2992,0.2942,0.2867,0.3056,0.2928,0.2944,0.2967,0.2773,0.2703,0.2697,0.2831,0.2834,0.2837,0.2838,0,0.1529,0.1568,0.1727,0.1764,0.186,0.1898,0.2025,0.2153,0.2301,0.2592,0.2584,0.2757,0.2935,0.2844,0.2777,0.2715,0.2681,0.2579,0.2613,0.2642,0.2586,0.2303,0.2215,0,0,0,0,0,0.1477,0.1484,0.1595,0.1654,0.1816,0.183,0.1962,0.2115,0.2314,0.2305,0.2455,0.2481,0.2485,0.2555,0.2435,0.2612,0.266,0.2454,0.2555,0.2687,0.2717,0.2674,0,0,0,0,0,0,0.1409,0.1505,0.1557,0.1567,0.1604,0.1701,0.1786,0.1928,0.1927,0.2143,0.2162,0.2316,0.235,0.2545,0.2396,0.2404,0.2404,0.2544,0.2536,0.267,0.2697,0.2721,0.2688,0,0,0,0,0]},{"header":{"parameterUnit":"m.s-1","parameterCategory":2,"la1":30.2991,"la2":30.254,"lo1":-89.0895,"lo2":-89.0444,"dy":0.0017,"dx":0.0017,"nx":28,"ny":28,"refTime":"2023-04-28T21:00:00:Z","depth":"4","parameterNumber":3,"parameterNumberName":"V-component_of_CURRENTS"},"data":[0,0,0,0,0,0,0,0,0,0,0,0,0,0,0,0,0,0,0,0,0,0,0,0,0,0,0,0,0,0,0,0,0,0,0,0,0,0,0,0,0,0,0,0,0,0,0,0,0,0,0,0,0,0,0,0,0,0,0.0543,0.0541,0,0.0442,0.0441,0.044,0.048,0.0483,0.0485,0.0488,0.044,0.0437,0.0434,0,0,0,0,0,0,0,0,0,0,0,0,0,0.0482,0.0485,0.0543,0.0541,0.054,0.0442,0.0441,0.0439,0.048,0.0483,0.0486,0.0489,0.0442,0.0437,0.0433,0,0,0,0,0,0,0,0,0,0,0,0,0,0.0458,0.0485,0.0543,0.0549,0.0548,0.0442,0.0441,0.0439,0.0479,0.0483,0.0487,0.049,0.0443,0.0438,0.0433,0.0328,0,0,0.0417,0.0414,0,0,0,0,0,0,0,0,0.046,0.046,0.0549,0.0548,0.0548,0.0478,0.0402,0.0405,0.0479,0.0505,0.0488,0.0492,0.0455,0.0449,0.0421,0.0326,0.0324,0.0416,0.0413,0.0411,0.0409,0,0,0,0,0,0,0,0.0462,0.0463,0.0503,0.0547,0.0546,0.0458,0.0461,0.0401,0.0462,0.0503,0.0506,0.0494,0.0456,0.0426,0.0421,0.0323,0.0416,0.0412,0.0408,0.0406,0.0303,0.0303,0,0,0,0,0,0,0.0486,0.0466,0.0506,0.05,0.0512,0.0457,0.046,0.0496,0.0462,0.046,0.0491,0.0496,0.0433,0.0427,0.0419,0.0447,0.0411,0.0406,0.0403,0.0302,0.0303,0.0303,0,0,0,0,0,0,0.0486,0.0492,0.051,0.0477,0.0474,0.0457,0.0494,0.0492,0.0493,0.0452,0.0452,0.0499,0.0436,0.0427,0.0438,0.044,0.0404,0.0399,0.0302,0.0302,0.0303,0.0404,0,0,0,0,0,0,0.0485,0.0494,0.0526,0.0481,0.0477,0.0476,0.0491,0.0488,0.0479,0.0485,0.0457,0.0455,0.0438,0.0447,0.0433,0.0432,0.0395,0.0301,0.0302,0.0303,0.04,0.0408,0.0415,0,0,0,0,0,0.0484,0.0528,0.0529,0.0533,0.0524,0.0476,0.0466,0.0462,0.0476,0.0476,0.0493,0.0457,0.0441,0.0443,0.0427,0.0425,0.0301,0.0302,0.0303,0.0397,0.0406,0.0415,0,0,0,0,0,0,0.0513,0.0533,0.0536,0.0583,0.0541,0.0485,0.048,0.0465,0.0467,0.0489,0.0465,0.0464,0.0469,0.0428,0.0432,0.0397,0.036,0.0358,0.0437,0.0446,0.0453,0.0479,0.039,0,0,0,0,0,0.0531,0.058,0.0549,0.058,0.0566,0.0519,0.0499,0.049,0.0479,0.0483,0.0468,0.0455,0.0445,0.0441,0.0413,0.0386,0.031,0.0372,0.0379,0.0386,0.0396,0.0253,0.0247,0.0306,0.0306,0.0306,0,0,0.056,0.0562,0.0598,0.0588,0.0557,0.0513,0.0518,0.0496,0.0511,0.0473,0.0502,0.0474,0.0445,0.0443,0.0437,0.042,0.0337,0.0387,0.0393,0.04,0.0253,0.0247,0.0241,0.0307,0.0306,0.0306,0,0,0.0595,0.063,0.0664,0.0633,0.0589,0.0529,0.0528,0.0484,0.0538,0.0532,0.0532,0.0513,0.0479,0.0467,0.0456,0.0471,0.0379,0.0462,0.0519,0.038,0.0373,0.0366,0.0298,0.0284,0.0466,0.0466,0.0466,0,0.0602,0.066,0.0654,0.0643,0.0619,0.0539,0.0525,0.0536,0.0513,0.0562,0.0564,0.0487,0.0484,0.046,0.0522,0.0484,0.042,0.0494,0.0388,0.0379,0.037,0.0301,0.0285,0.0471,0.047,0.047,0.0469,0,0.066,0.068,0.0684,0.0648,0.0608,0.0585,0.057,0.0593,0.0602,0.0587,0.0595,0.0553,0.0514,0.0504,0.055,0.0494,0.0477,0.0412,0.0367,0.037,0.0298,0.0279,0.0478,0.0476,0.0475,0.0474,0,0,0.0713,0.0728,0.0735,0.0728,0.0624,0.0602,0.0634,0.0635,0.0677,0.0632,0.0665,0.0646,0.0597,0.0584,0.0563,0.048,0.0421,0.0469,0.0459,0.0407,0.0167,0.0209,0.0192,0.0334,0.0331,0.0328,0.0155,0,0.0738,0.077,0.0758,0.0729,0.0706,0.0678,0.0714,0.0716,0.0708,0.0722,0.0675,0.0658,0.0633,0.0627,0.0537,0.0461,0.0371,0.0478,0.0167,0.016,0.0197,0.017,0.0317,0.014,0.0135,0.0132,0.013,0,0.0768,0.0787,0.0818,0.081,0.0811,0.0783,0.0806,0.0856,0.0857,0.0866,0.0774,0.0713,0.0646,0.0599,0.0374,0.0449,0.0345,0.0241,0.0229,0.0218,0.0165,0.0123,0.0094,0.0096,0.0099,0.0102,0.0104,0,0.0791,0.0808,0.0853,0.0846,0.0826,0.0891,0.0902,0.0902,0.0969,0.0948,0.0905,0.0755,0.0703,0.0498,0.0353,0.0364,0.008,0.0031,-0.0065,-0.0063,-0.0093,-0.0085,-0.0174,-0.0174,-0.0174,-0.0173,-0.0173,0,0.0788,0.0822,0.0894,0.0911,0.097,0.0974,0.1036,0.1056,0.1065,0.1074,0.0988,0.0903,0.0677,0.0503,0.0341,0.0102,0.0038,-0.0052,-0.0119,-0.0038,-0.0022,-0.0105,-0.0094,-0.018,-0.0178,-0.0177,-0.0176,0,0.0779,0.0839,0.0873,0.0943,0.0965,0.1036,0.11,0.1158,0.1166,0.1163,0.1159,0.1014,0.0806,0.0554,0.0245,0.0101,-0.0145,-0.0222,-0.0061,-0.0117,-0.0186,-0.0168,-0.036,-0.0361,-0.0361,-0.0361,-0.0361,0,0.0799,0.0811,0.0895,0.0944,0.0981,0.1083,0.115,0.1198,0.1226,0.1204,0.1191,0.1031,0.0902,0.0498,0.0242,-0.0121,-0.0171,-0.0289,-0.0271,-0.0166,-0.0213,-0.0195,-0.0177,-0.0362,-0.0362,-0.0362,-0.0362,0,0.0781,0.0816,0.0864,0.0954,0.1036,0.1115,0.1209,0.1218,0.1292,0.1273,0.1201,0.1026,0.0801,0.0508,0.0248,-0.0024,-0.0208,-0.0292,-0.0294,-0.0279,-0.017,-0.0212,-0.0195,-0.0363,-0.0362,-0.0362,-0.0362,0,0.0775,0.0794,0.0865,0.0948,0.1053,0.1136,0.118,0.123,0.1267,0.125,0.1217,0.1013,0.0896,0.0556,0.0295,0.0063,-0.0008,-0.009,-0.0104,-0.0106,0.0029,0.0208,0.007,0,0,0,0,0,0.0748,0.0775,0.0851,0.0946,0.1064,0.1126,0.1212,0.1261,0.1298,0.1262,0.1249,0.1052,0.0724,0.0578,0.0348,0.0254,-0.0074,-0.0025,-0.0182,-0.0367,-0.0366,-0.0246,0,0,0,0,0,0,0.0726,0.0787,0.083,0.0953,0.1028,0.1148,0.1212,0.1243,0.1218,0.1227,0.1056,0.0999,0.067,0.0861,0.0348,0.0278,0.0147,-0.0173,-0.0178,-0.0368,-0.0367,-0.0366,-0.0242,0,0,0,0,0]}]]